Flag for U.S.A. Weather past 2 weeks in Flagstaff, Arizona, U.S.A.

Now
44 °F

Passing clouds.


Feels Like: 41 °F
Forecast: 34 / 50 °F
Wind: 6 mph from Southwest

Location: Flagstaff Pulliam Airport

Current Time: Jan 27, 2015 at 12:04:23 PM

Latest Report: Jan 27, 2015 at 10:57 AM


Visibility: 10 mi

Pressure: 30.27 "Hg

Humidity: 73%

Dew point: 36 °F

Location of FlagstaffLocation

Historic Weather in Flagstaff — Graph

°F

Flagstaff temperature yesterday

Maximum temperature yesterday: 54 °F (at 2:57 PM)
Minimum temperature yesterday: 27 °F (at 3:57 AM)
Average temperature yesterday: 41 °F

Past Weeks' High & Low Weather Summary

 TemperatureHumidityPressure
High60 °F (Jan 18, 1:57 PM)97% (Jan 27, 6:57 AM)30.42 "Hg (Jan 27, 6:57 AM)
Low12 °F (Jan 23, 3:57 AM)18% (Jan 16, 2:57 PM)29.87 "Hg (Jan 21, 3:57 AM)
Average35 °F60%30.20 "Hg
* Reported Jan 12 10:57 AM — Jan 27 10:57 AM, Flagstaff, Weather by CustomWeather, © 2014

Note: Actual official high and low records may vary slightly from our data, if they occured in-between our weather recording intervals... More about our weather records

Advertising

Flagstaff weather history for previous 24 hours

 ConditionsComfort  
Time TempWeatherWind HumidityBarometerVisibility
10:57 AM
Jan 27
44 °FPassing clouds.6 mph73%30.27 "Hg10 mi
9:57 AM41 °FScattered clouds.9 mph82%30.27 "Hg10 mi
8:57 AM40 °FScattered clouds.12 mph83%30.27 "Hg10 mi
7:57 AM36 °FBroken clouds.10 mph92%30.27 "Hg10 mi
6:57 AM36 °FPassing clouds.7 mph97%30.24 "Hg10 mi
5:57 AM38 °FLight rain. Mostly cloudy.5 mph93%30.20 "Hg7 mi
5:04 AM38 °FLight rain. Fog.No wind90%30.31 "Hg4 mi
4:57 AM37 °FLight rain. Fog.No wind93%30.18 "Hg4 mi
3:57 AM39 °FMostly cloudy.3 mph73%30.14 "Hg8 mi
2:57 AM39 °FMostly cloudy.3 mph67%30.14 "Hg10 mi
1:57 AM39 °FMostly cloudy.No wind67%30.15 "Hg10 mi
12:57 AM39 °FMostly cloudy.3 mph65%30.17 "Hg10 mi
11:57 PM
Jan 26
38 °FOvercast.3 mph70%30.19 "Hg10 mi
10:57 PM38 °FOvercast.No wind65%30.19 "Hg10 mi
9:57 PM38 °FMostly cloudy.No wind60%30.20 "Hg10 mi
8:57 PM38 °FOvercast.3 mph63%30.19 "Hg10 mi
7:57 PM40 °FPassing clouds.3 mph55%30.21 "Hg10 mi
6:57 PM41 °FMostly cloudy.3 mph53%30.22 "Hg10 mi
5:57 PM43 °FClear.7 mph49%30.19 "Hg10 mi
4:57 PM48 °FSunny.9 mph43%30.16 "Hg10 mi
3:57 PM52 °FSunny.7 mph35%30.17 "Hg10 mi
2:57 PM54 °FSunny.7 mph33%30.15 "Hg10 mi
1:57 PM52 °FSunny.7 mph34%30.16 "Hg10 mi
12:57 PM50 °FSunny.10 mph35%30.16 "Hg10 mi
Weather by CustomWeather, © 2014

See weather overviewHow to use our weather pages